Tracking 19720 objects as of 26-Jun-2019
HD Live streaming from Space Station
objects crossing your sky now

SL-24 DEB

Track SL-24 DEB now!
10-day predictions


NORAD ID: 33398
Int'l Code: 2008-049C
Perigee: 632.1 km
Apogee: 669.9 km
Inclination: 98.8 °
Period: 97.6 minutes
Semi major axis: 7022 km
RCS: 7.1923 m2 (large)
Launch date: October 1, 2008
Source: Commonwealth of Independent States (former USSR) (CIS)
Launch site: Orenburg, Russia (OREN)

Note: This is SATELLITE DEBRIS
aabbcc
Your satellite tracking list
Your tracking list is empty




NASA's NSSDC Master Catalog

Two Line Element Set (TLE):
1 33398U 08049C   19176.26089825 +.00000120 +00000-0 +26606-4 0  9998
2 33398 098.7801 261.2511 0026941 341.5781 018.4448 14.75405180576428
Source of the keplerian elements: AFSPC